STARLINK-32121 (60264 NORAD) Tracking and Keplerian Element Data

This shows tracking and keplerian element data for the satellite.

Feedback or suggestion? Click here.




ElementValue
Catalog60264
NameSTARLINK-32121
Epoch Orbit1320
Epoch Day286.69790152
Epoch Year2024
RAAN276.9108
Inclination53.1588
Eccentricity0.0001535
Argument of Perigee83.8954
Mean Anonmoly276.2225
Mean Motion15.39638514
Decay Rate0.00027815
L11 60264U 24131K 24286.69790152 .00027815 00000+0 70238-3 0 9995
L22 60264 53.1588 276.9108 0001535 83.8954 276.2225 15.39638514 13201



Live tracking and technical data element details for STARLINK-32121 (NORAD 60264). STARLINK-32121 can be tracked NOW for your location showing map with azimuth and elevation plus other details from your city location.







IsCatalogInMostPopularTable: catalog: 60264, numindb: 16
Update: records affected: 1



GetName: 60264 STARLINK-32121

Hit Count: updated at: Thu, 23 Jan 2025 13:29:36 GMT